パンスターズ彗星

C/2017 K5 ( PanSTARRS )

English version
Home page
Updated on June 14, 2021

---------------------------------------------------------------------

・ プロフィール

発見日 2017年5月27日
発見光度 22.0等
発見者 Pan-STARRS 1 telescope (Haleakala)

・ 写真集

・ 軌道要素

Epoch 2020 Mar. 12.0 TT = JDT 2458920.5
T 2020 Mar. 24.14901 TT                                 Rudenko
q   7.6787298            (2000.0)            P               Q
z  -0.0008263      Peri.  171.83434     +0.19343633     +0.16059073
 +/-0.0000035      Node   102.37357     -0.94682764     +0.28906963
e   1.0063447      Incl.   82.26366     -0.25709884     -0.94374221
From 90 observations 2017 May 27-2020 July 9, mean residual 0".8.

・ 光度変化

        m1 = -8.7 + 5 logΔ + 25.0 log r

---------------------------------------------------------------------

軌道要素はM.P.E.C. 2020-S188に掲載されたものです。
光度グラフはComet for Windowsで作成したものです。

---------------------------------------------------------------------

Copyright(C) Seiichi Yoshida (comet@aerith.net). All rights reserved.